Time,TemperatureF,DewpointF,PressureIn,WindDirection,WindDirectionDegrees,WindSpeedMPH,WindSpeedGustMPH,Humidity,HourlyPrecipIn,Conditions,Clouds,dailyrainin,SolarRadiationWatts/m^2,SoftwareType,DateUTC
2013-08-21 00:04:00,79.9,77.0,30.00,East,84,0.0,3.0,89,0.00,,,0.00,0,weatherlink.com 1.10,2013-08-21 04:04:00,
2013-08-21 00:19:00,80.2,77.0,29.99,East,84,0.0,1.0,89,0.00,,,0.00,0,weatherlink.com 1.10,2013-08-21 04:19:00,
2013-08-21 00:34:00,80.2,77.0,30.00,East,84,0.0,1.0,89,0.00,,,0.00,0,weatherlink.com 1.10,2013-08-21 04:34:00,
2013-08-21 00:49:00,79.8,76.0,29.99,East,84,1.0,5.0,89,0.00,,,0.00,0,weatherlink.com 1.10,2013-08-21 04:49:00,
2013-08-21 01:05:00,79.8,76.0,29.99,East,84,0.0,2.0,89,0.00,,,0.00,0,weatherlink.com 1.10,2013-08-21 05:05:00,
2013-08-21 01:20:00,79.5,76.0,29.99,East,84,0.0,1.0,89,0.00,,,0.00,0,weatherlink.com 1.10,2013-08-21 05:20:00,
2013-08-21 01:35:00,79.3,76.0,29.98,East,84,0.0,0.0,90,0.00,,,0.00,0,weatherlink.com 1.10,2013-08-21 05:35:00,
2013-08-21 01:50:00,79.2,76.0,29.98,East,84,1.0,3.0,90,0.00,,,0.00,0,weatherlink.com 1.10,2013-08-21 05:50:00,
2013-08-21 02:05:00,79.2,76.0,29.97,ENE,73,4.0,7.0,91,0.07,,,0.07,0,weatherlink.com 1.10,2013-08-21 06:05:00,
2013-08-21 02:20:00,78.9,77.0,29.98,ENE,73,2.0,5.0,92,0.07,,,0.07,0,weatherlink.com 1.10,2013-08-21 06:20:00,
2013-08-21 02:35:00,78.1,75.0,29.98,ENE,74,4.0,9.0,91,0.07,,,0.07,0,weatherlink.com 1.10,2013-08-21 06:35:00,
2013-08-21 02:50:00,76.9,74.0,29.98,ESE,111,9.0,15.0,89,0.08,,,0.08,0,weatherlink.com 1.10,2013-08-21 06:50:00,
2013-08-21 03:05:00,75.7,72.0,29.96,East,92,3.0,11.0,89,0.03,,,0.10,0,weatherlink.com 1.10,2013-08-21 07:05:00,
2013-08-21 03:20:00,75.1,71.0,29.96,East,81,2.0,11.0,88,0.03,,,0.10,0,weatherlink.com 1.10,2013-08-21 07:20:00,
2013-08-21 03:35:00,75.3,71.0,29.96,East,82,0.0,7.0,87,0.03,,,0.10,0,weatherlink.com 1.10,2013-08-21 07:35:00,
2013-08-21 03:50:00,75.4,72.0,29.96,East,82,0.0,7.0,88,0.02,,,0.10,0,weatherlink.com 1.10,2013-08-21 07:50:00,
2013-08-21 04:05:00,75.4,72.0,29.96,East,82,1.0,5.0,89,0.00,,,0.10,0,weatherlink.com 1.10,2013-08-21 08:05:00,
2013-08-21 04:20:00,75.4,72.0,29.96,East,82,0.0,1.0,90,0.00,,,0.10,0,weatherlink.com 1.10,2013-08-21 08:20:00,
2013-08-21 04:35:00,75.4,73.0,29.96,East,82,1.0,2.0,91,0.00,,,0.10,0,weatherlink.com 1.10,2013-08-21 08:35:00,
2013-08-21 04:50:00,75.5,73.0,29.96,East,82,0.0,1.0,91,0.00,,,0.10,0,weatherlink.com 1.10,2013-08-21 08:50:00,
2013-08-21 05:05:00,75.5,73.0,29.97,East,82,0.0,2.0,92,0.00,,,0.10,0,weatherlink.com 1.10,2013-08-21 09:05:00,
2013-08-21 05:20:00,75.6,73.0,29.97,East,82,0.0,1.0,92,0.00,,,0.10,0,weatherlink.com 1.10,2013-08-21 09:20:00,
2013-08-21 05:35:00,75.9,74.0,29.97,East,82,0.0,2.0,92,0.00,,,0.10,0,weatherlink.com 1.10,2013-08-21 09:35:00,
2013-08-21 05:50:00,75.9,74.0,29.97,East,82,0.0,0.0,92,0.00,,,0.10,0,weatherlink.com 1.10,2013-08-21 09:50:00,
2013-08-21 06:05:00,76.0,74.0,29.97,East,82,0.0,0.0,93,0.00,,,0.10,0,weatherlink.com 1.10,2013-08-21 10:05:00,
2013-08-21 06:20:00,76.2,74.0,29.97,East,82,0.0,1.0,93,0.00,,,0.10,9,weatherlink.com 1.10,2013-08-21 10:20:00,
2013-08-21 06:35:00,76.6,75.0,29.97,East,82,0.0,1.0,93,0.00,,,0.10,23,weatherlink.com 1.10,2013-08-21 10:35:00,
2013-08-21 06:50:00,76.8,75.0,29.98,NW,306,0.0,2.0,93,0.00,,,0.10,42,weatherlink.com 1.10,2013-08-21 10:50:00,
2013-08-21 07:05:00,77.1,75.0,29.98,NW,306,0.0,1.0,93,0.00,,,0.10,62,weatherlink.com 1.10,2013-08-21 11:05:00,
2013-08-21 07:20:00,77.4,75.0,29.98,NW,306,1.0,1.0,93,0.00,,,0.10,74,weatherlink.com 1.10,2013-08-21 11:20:00,
2013-08-21 07:35:00,77.9,76.0,29.98,NW,306,0.0,2.0,93,0.00,,,0.10,98,weatherlink.com 1.10,2013-08-21 11:35:00,
2013-08-21 07:50:00,78.3,76.0,29.99,NW,306,0.0,1.0,92,0.00,,,0.10,98,weatherlink.com 1.10,2013-08-21 11:50:00,
2013-08-21 08:05:00,79.0,77.0,29.99,NW,306,0.0,1.0,92,0.00,,,0.10,121,weatherlink.com 1.10,2013-08-21 12:05:00,
2013-08-21 08:20:00,79.8,77.0,30.00,NW,306,0.0,3.0,92,0.00,,,0.10,165,weatherlink.com 1.10,2013-08-21 12:20:00,
2013-08-21 08:35:00,80.5,78.0,30.00,NW,306,2.0,3.0,91,0.00,,,0.10,197,weatherlink.com 1.10,2013-08-21 12:35:00,
2013-08-21 08:50:00,81.5,78.0,30.00,ENE,78,4.0,8.0,90,0.00,,,0.10,234,weatherlink.com 1.10,2013-08-21 12:50:00,
2013-08-21 09:06:00,82.2,78.0,30.00,ENE,78,5.0,8.0,88,0.00,,,0.10,251,weatherlink.com 1.10,2013-08-21 13:06:00,
2013-08-21 09:21:00,82.8,78.0,30.00,NE,54,6.0,14.0,86,0.00,,,0.10,283,weatherlink.com 1.10,2013-08-21 13:21:00,
2013-08-21 09:36:00,83.5,78.0,30.00,East,98,7.0,12.0,84,0.00,,,0.10,320,weatherlink.com 1.10,2013-08-21 13:36:00,
2013-08-21 09:51:00,84.2,79.0,30.00,East,95,6.0,10.0,83,0.00,,,0.10,299,weatherlink.com 1.10,2013-08-21 13:51:00,
2013-08-21 10:06:00,84.8,78.0,30.01,East,81,7.0,11.0,81,0.00,,,0.10,336,weatherlink.com 1.10,2013-08-21 14:06:00,
2013-08-21 10:21:00,85.4,79.0,30.00,ENE,60,3.0,10.0,80,0.00,,,0.10,390,weatherlink.com 1.10,2013-08-21 14:21:00,
2013-08-21 10:36:00,85.7,79.0,30.00,East,83,6.0,15.0,80,0.00,,,0.10,362,weatherlink.com 1.10,2013-08-21 14:36:00,
2013-08-21 10:51:00,85.8,79.0,30.00,NNE,24,7.0,16.0,80,0.00,,,0.10,612,weatherlink.com 1.10,2013-08-21 14:51:00,
2013-08-21 11:06:00,86.5,79.0,30.00,East,91,5.0,16.0,78,0.00,,,0.10,520,weatherlink.com 1.10,2013-08-21 15:06:00,
2013-08-21 11:21:00,87.5,80.0,30.00,ENE,75,8.0,13.0,77,0.00,,,0.10,513,weatherlink.com 1.10,2013-08-21 15:21:00,
2013-08-21 11:36:00,88.8,80.0,30.00,ENE,66,5.0,14.0,75,0.00,,,0.10,907,weatherlink.com 1.10,2013-08-21 15:36:00,
2013-08-21 11:51:00,88.9,79.0,29.99,ENE,59,7.0,16.0,73,0.00,,,0.10,888,weatherlink.com 1.10,2013-08-21 15:51:00,
2013-08-21 12:06:00,88.6,79.0,29.99,NE,56,8.0,15.0,73,0.00,,,0.10,492,weatherlink.com 1.10,2013-08-21 16:06:00,
2013-08-21 12:21:00,89.2,79.0,29.99,East,82,8.0,17.0,72,0.00,,,0.10,916,weatherlink.com 1.10,2013-08-21 16:21:00,
2013-08-21 12:36:00,88.7,79.0,29.98,ENE,59,11.0,15.0,73,0.00,,,0.10,1109,weatherlink.com 1.10,2013-08-21 16:36:00,
2013-08-21 12:51:00,88.6,79.0,29.98,ENE,59,7.0,14.0,73,0.00,,,0.10,431,weatherlink.com 1.10,2013-08-21 16:51:00,
2013-08-21 13:06:00,87.7,79.0,29.97,East,80,7.0,16.0,75,0.00,,,0.10,545,weatherlink.com 1.10,2013-08-21 17:06:00,
2013-08-21 13:21:00,88.2,80.0,29.97,ENE,78,10.0,14.0,76,0.00,,,0.10,902,weatherlink.com 1.10,2013-08-21 17:21:00,
2013-08-21 13:36:00,89.1,80.0,29.96,ENE,59,13.0,16.0,74,0.00,,,0.10,694,weatherlink.com 1.10,2013-08-21 17:36:00,
2013-08-21 13:51:00,88.3,79.0,29.96,ENE,76,8.0,16.0,74,0.00,,,0.10,710,weatherlink.com 1.10,2013-08-21 17:51:00,
2013-08-21 14:06:00,88.4,79.0,29.95,ENE,72,11.0,17.0,74,0.00,,,0.10,925,weatherlink.com 1.10,2013-08-21 18:06:00,
2013-08-21 14:21:00,88.9,79.0,29.95,ENE,76,10.0,18.0,73,0.00,,,0.10,851,weatherlink.com 1.10,2013-08-21 18:21:00,
2013-08-21 14:36:00,89.2,79.0,29.95,ENE,61,12.0,16.0,72,0.00,,,0.10,817,weatherlink.com 1.10,2013-08-21 18:36:00,
2013-08-21 14:51:00,88.9,79.0,29.94,ENE,69,4.0,17.0,72,0.00,,,0.10,817,weatherlink.com 1.10,2013-08-21 18:51:00,
2013-08-21 15:06:00,88.1,79.0,29.94,East,94,9.0,21.0,74,0.00,,,0.10,789,weatherlink.com 1.10,2013-08-21 19:06:00,
2013-08-21 15:21:00,88.5,77.0,29.94,ENE,59,11.0,18.0,68,0.00,,,0.10,707,weatherlink.com 1.10,2013-08-21 19:21:00,
2013-08-21 15:36:00,88.6,78.0,29.94,ENE,78,8.0,17.0,70,0.00,,,0.10,540,weatherlink.com 1.10,2013-08-21 19:36:00,
2013-08-21 15:51:00,87.9,77.0,29.94,NE,46,5.0,16.0,69,0.00,,,0.10,638,weatherlink.com 1.10,2013-08-21 19:51:00,
2013-08-21 16:06:00,88.1,76.0,29.94,East,93,5.0,18.0,68,0.00,,,0.10,450,weatherlink.com 1.10,2013-08-21 20:06:00,
2013-08-21 16:21:00,87.5,77.0,29.94,NE,47,11.0,15.0,70,0.00,,,0.10,302,weatherlink.com 1.10,2013-08-21 20:21:00,
2013-08-21 16:36:00,86.7,77.0,29.94,ENE,71,5.0,14.0,73,0.00,,,0.10,308,weatherlink.com 1.10,2013-08-21 20:36:00,
2013-08-21 16:51:00,85.8,77.0,29.94,ENE,57,5.0,18.0,75,0.00,,,0.10,146,weatherlink.com 1.10,2013-08-21 20:51:00,
2013-08-21 17:06:00,85.2,77.0,29.94,East,82,7.0,16.0,76,0.00,,,0.10,130,weatherlink.com 1.10,2013-08-21 21:06:00,
2013-08-21 17:21:00,84.7,76.0,29.95,ENE,60,7.0,18.0,76,0.00,,,0.10,97,weatherlink.com 1.10,2013-08-21 21:21:00,
2013-08-21 17:36:00,84.4,76.0,29.95,East,81,15.0,16.0,76,0.00,,,0.10,79,weatherlink.com 1.10,2013-08-21 21:36:00,
2013-08-21 17:51:00,84.2,76.0,29.95,NE,51,10.0,19.0,77,0.00,,,0.10,60,weatherlink.com 1.10,2013-08-21 21:51:00,
2013-08-21 18:06:00,84.1,77.0,29.95,NE,43,8.0,18.0,78,0.00,,,0.10,49,weatherlink.com 1.10,2013-08-21 22:06:00,
2013-08-21 18:21:00,83.9,77.0,29.95,ENE,77,3.0,14.0,79,0.00,,,0.10,21,weatherlink.com 1.10,2013-08-21 22:21:00,
2013-08-21 18:36:00,83.9,77.0,29.96,East,97,9.0,14.0,80,0.00,,,0.10,7,weatherlink.com 1.10,2013-08-21 22:36:00,
2013-08-21 18:51:00,83.4,77.0,29.96,NE,41,9.0,12.0,80,0.00,,,0.10,0,weatherlink.com 1.10,2013-08-21 22:51:00,
2013-08-21 19:06:00,83.3,77.0,29.96,ENE,62,10.0,14.0,81,0.00,,,0.10,0,weatherlink.com 1.10,2013-08-21 23:06:00,
2013-08-21 19:21:00,83.2,77.0,29.96,ENE,70,10.0,14.0,81,0.00,,,0.10,0,weatherlink.com 1.10,2013-08-21 23:21:00,
2013-08-21 19:36:00,83.1,76.0,29.97,NE,48,8.0,13.0,79,0.00,,,0.10,0,weatherlink.com 1.10,2013-08-21 23:36:00,
2013-08-21 19:51:00,83.1,77.0,29.97,ENE,76,5.0,16.0,81,0.00,,,0.10,0,weatherlink.com 1.10,2013-08-21 23:51:00,
2013-08-21 20:06:00,83.1,77.0,29.98,NE,53,5.0,12.0,82,0.00,,,0.10,0,weatherlink.com 1.10,2013-08-22 00:06:00,
2013-08-21 20:21:00,82.8,76.0,29.97,ENE,73,9.0,14.0,81,0.00,,,0.10,0,weatherlink.com 1.10,2013-08-22 00:21:00,
2013-08-21 20:36:00,82.7,76.0,29.98,NE,43,7.0,14.0,81,0.00,,,0.10,0,weatherlink.com 1.10,2013-08-22 00:36:00,
2013-08-21 20:51:00,82.7,76.0,29.98,ENE,65,8.0,14.0,81,0.00,,,0.10,0,weatherlink.com 1.10,2013-08-22 00:51:00,
2013-08-21 21:06:00,82.7,77.0,29.99,ENE,74,3.0,11.0,82,0.00,,,0.10,0,weatherlink.com 1.10,2013-08-22 01:06:00,
2013-08-21 21:21:00,82.6,76.0,29.99,ENE,57,4.0,13.0,81,0.00,,,0.10,0,weatherlink.com 1.10,2013-08-22 01:21:00,
2013-08-21 21:36:00,82.5,76.0,29.99,ENE,65,5.0,13.0,81,0.00,,,0.10,0,weatherlink.com 1.10,2013-08-22 01:36:00,
2013-08-21 21:51:00,82.8,76.0,30.00,East,80,6.0,14.0,80,0.00,,,0.10,0,weatherlink.com 1.10,2013-08-22 01:51:00,
2013-08-21 22:06:00,83.2,76.0,30.00,East,89,6.0,11.0,80,0.00,,,0.10,0,weatherlink.com 1.10,2013-08-22 02:06:00,
2013-08-21 22:21:00,83.3,77.0,30.00,ENE,72,3.0,10.0,81,0.00,,,0.10,0,weatherlink.com 1.10,2013-08-22 02:21:00,
2013-08-21 22:37:00,83.0,77.0,30.00,ENE,67,4.0,15.0,82,0.00,,,0.10,0,weatherlink.com 1.10,2013-08-22 02:37:00,
2013-08-21 22:52:00,82.5,77.0,29.99,East,82,8.0,10.0,82,0.00,,,0.10,0,weatherlink.com 1.10,2013-08-22 02:52:00,
2013-08-21 23:07:00,82.4,76.0,29.99,East,96,6.0,11.0,82,0.00,,,0.10,0,weatherlink.com 1.10,2013-08-22 03:07:00,
2013-08-21 23:22:00,82.3,76.0,29.99,ENE,73,2.0,7.0,82,0.00,,,0.10,0,weatherlink.com 1.10,2013-08-22 03:22:00,
2013-08-21 23:37:00,81.9,76.0,29.99,East,95,5.0,8.0,82,0.00,,,0.10,0,weatherlink.com 1.10,2013-08-22 03:37:00,
2013-08-21 23:52:00,81.9,76.0,29.99,East,84,8.0,11.0,81,0.00,,,0.10,0,weatherlink.com 1.10,2013-08-22 03:52:00,